Printer-friendly version

IAU Minor Planet Center

Minor Planet Center

MPEC 2006-S60 : 2006 SO77

The following Minor Planet Electronic Circular may be linked-to from your own Web pages, but must not otherwise be redistributed electronically.


Read MPEC 2006-S59 Read MPEC 2006-S61


M.P.E.C. 2006-S60                                Issued 2006 Sept. 25, 14:38 UT

     The Minor Planet Electronic Circulars contain information on unusual
         minor planets and routine data on comets.  They are published
   on behalf of Commission 20 of the International Astronomical Union by the
          Minor Planet Center, Smithsonian Astrophysical Observatory,
                          Cambridge, MA 02138, U.S.A.

                  Supported in part by the Brinson Foundation
                  Supported in part by the TABASGO Foundation
             Prepared using the Tamkin Foundation Computer Network

                              MPC@CFA.HARVARD.EDU
          URL http://cfa-www.harvard.edu/iau/mpc.html  ISSN 1523-6714

                                   2006 SO77

Observations:
     K06S77O* C2006 09 25.26231 01 30 24.40 +31 23 42.3          18.4 V ES060703
     K06S77O  C2006 09 25.27039 01 30 33.76 +31 23 08.7          18.3 V ES060703
     K06S77O  C2006 09 25.28655 01 30 52.20 +31 22 08.4          17.3 V ES060703
     K06S77O  C2006 09 25.33208 01 31 42.24 +31 18 40.3          18.1 V ES060703
     K06S77O  C2006 09 25.33243 01 31 42.63 +31 18 39.0          18.9 V ES060703
     K06S77O  C2006 09 25.33278 01 31 42.96 +31 18 37.1          18.4 V ES060703
     K06S77O 5C2006 09 25.45822 01 33 57.86 +31 07 56.4          18.4 R ES060673
     K06S77O  C2006 09 25.45875 01 33 49.31 +31 06 16.0          19.6 R ES060734
     K06S77O  C2006 09 25.46059 01 33 51.22 +31 06 06.1          19.3 R ES060734
     K06S77O 5C2006 09 25.46181 01 34 01.51 +31 07 37.2                 ES060673
     K06S77O  C2006 09 25.46244 01 33 53.29 +31 05 55.9          19.2 R ES060734
     K06S77O  C2006 09 25.46398 01 33 54.79 +31 05 45.5          19.6 R ES060734
     K06S77O 5C2006 09 25.46701 01 34 06.86 +31 07 09.2                 ES060673
     K06S77O 5C2006 09 25.47234 01 34 12.26 +31 06 40.5                 ES060673
     K06S77O  C2006 09 25.49110 01 34 27.68 +31 04 56.1          18.7 R ES060854
     K06S77O  C2006 09 25.49829 01 34 35.20 +31 04 16.2          18.6 R ES060854
     K06S77O  C2006 09 25.50050 01 34 37.51 +31 04 04.4          18.5 R ES060854

Observer details:
673 Table Mountain Observatory, Wrightwood.  Observer J. Young.  0.61-m f/16
    Cassegrain + CCD.
703 Catalina Sky Survey.  Observer R. A. Kowalski.  Measurers E. C. Beshore,
    E. J. Christensen, G. J. Garradd, A. R. Gibbs, A. D. Grauer, R. E. Hill,
    R. A. Kowalski, S. M. Larson, R. H. McNaught.  0.68-m Schmidt + CCD.
734 Farpoint Observatory.  Observer D. Tibbets.  Measurer G. Hug.  0.7-m
    reflector + CCD.
854 Sabino Canyon Observatory, Tucson.  Observer J. E. McGaha.  0.36-m f/10.0
    Schmidt-Cassegrain + CCD.

Orbital elements:
2006 SO77                                                Earth MOID = 0.0021 AU
Epoch 2006 Sept. 22.0 TT = JDT 2454000.5                MPC
M   8.17525              (2000.0)            P               Q
n   0.40189220     Peri.  339.01824     +0.89831841     +0.43933108
a   1.8185685      Node   354.91643     -0.39725812     +0.80883719
e   0.4632450      Incl.    2.26304     -0.18764336     +0.39085880
P   2.45           H   26.5           G   0.15           U   7
Residuals in seconds of arc
060925 703  0.4-  0.5+    060925 673  0.4-  0.2+    060925 673  0.1-  0.1+
060925 703  0.4-  0.0     060925 734  0.3+  0.3-    060925 673  0.7-  0.2+
060925 703 (0.0   7.1+)   060925 734  0.9-  0.2+    060925 854  0.5-  0.7-
060925 703  0.3-  0.1+    060925 673  0.6-  0.2+    060925 854  0.4-  0.3+
060925 703  0.1-  0.4+    060925 734  0.1-  0.6+    060925 854  0.4-  1.1+
060925 703  0.7-  0.1+    060925 734 (2.4-  1.1-)

Ephemeris:
2006 SO77                a,e,i = 1.82, 0.46, 2                   q = 0.9770
Date    TT    R. A. (2000) Decl.     Delta      r     Elong.  Phase     V
2006 09 22    19 04.28   +14 21.3    0.00421 1.0051   106.5    73.2    17.2
2006 09 23    22 54.00   +34 15.5    0.00539 1.0079   142.4    37.4    16.7
2006 09 24    00 42.20   +33 39.5    0.00907 1.0108   145.4    34.3    17.7
2006 09 25    01 23.43   +31 47.9    0.0133  1.0138   143.9    35.6    18.6
2006 09 26    01 43.68   +30 31.3    0.0177  1.0170   143.1    36.3    19.3
2006 09 27    01 55.49   +29 39.1    0.0222  1.0203   142.8    36.4    19.8
2006 09 28    02 03.14   +29 01.5    0.0268  1.0236   142.9    36.2    20.2
2006 09 29    02 08.45   +28 33.0    0.0313  1.0271   143.2    35.7    20.5
2006 09 30    02 12.31   +28 10.5    0.0359  1.0307   143.7    35.1    20.8
2006 10 01    02 15.22   +27 52.1    0.0405  1.0344   144.3    34.4    21.0
2006 10 02    02 17.45   +27 36.5    0.0451  1.0383   145.0    33.6    21.3
2006 10 03    02 19.21   +27 23.1    0.0497  1.0422   145.8    32.7    21.5
2006 10 04    02 20.59   +27 11.1    0.0544  1.0462   146.5    31.8    21.6
2006 10 05    02 21.69   +27 00.3    0.0590  1.0503   147.4    30.9    21.8
2006 10 06    02 22.56   +26 50.3    0.0637  1.0545   148.2    29.9    21.9
2006 10 07    02 23.25   +26 41.0    0.0684  1.0589   149.1    29.0    22.1
2006 10 08    02 23.79   +26 32.2    0.0732  1.0633   150.0    28.0    22.2
2006 10 09    02 24.20   +26 23.8    0.0779  1.0678   150.9    27.0    22.3
2006 10 10    02 24.49   +26 15.6    0.0827  1.0723   151.9    26.0    22.4
2006 10 11    02 24.70   +26 07.7    0.0875  1.0770   152.8    25.0    22.5
2006 10 12    02 24.82   +25 59.8    0.0923  1.0817   153.8    24.0    22.6

Timothy B. Spahr             (C) Copyright 2006 MPC           M.P.E.C. 2006-S60

Read MPEC 2006-S59 Read MPEC 2006-S61


Our Web policy. Index to the CBAT/MPC/ICQ pages.


Valid HTML 4.01!